• In Russia
  • List of Countries
  • For 7 days
  • Water Temperature
  • Weather Map
  • Weather Widgets
  • user-avatar
    Login

    Hourly Weather Qala i Naw

    Today, 29 January, Wednesday

    Time Temperature Precipitation Wind Pressure Humidity
    00:00 +1°C° 0 mm 1 mps 684 mmHg 59%
    01:00 +1°C° 0 mm 1 mps 684 mmHg 57%
    02:00 0°C° 0 mm 1 mps 684 mmHg 54%
    03:00 0°C° 0 mm 1 mps 683 mmHg 52%
    04:00 0°C° 0 mm 1 mps 683 mmHg 50%
    05:00 0°C° 0 mm 1 mps 683 mmHg 47%
    06:00 0°C° 0 mm 1 mps 684 mmHg 45%
    07:00 0°C° 0 mm 1 mps 684 mmHg 42%
    08:00 +2°C° 0 mm 1 mps 684 mmHg 39%
    09:00 +3°C° 0 mm 1 mps 684 mmHg 37%
    10:00 +5°C° 0 mm 1 mps 684 mmHg 35%
    11:00 +6°C° 0 mm 1 mps 683 mmHg 36%
    12:00 +7°C° 0 mm 1 mps 683 mmHg 37%
    13:00 +8°C° 0 mm 1 mps 682 mmHg 37%
    14:00 +7°C° 0 mm 1 mps 682 mmHg 38%
    15:00 +7°C° 0 mm 1 mps 682 mmHg 39%
    16:00 +7°C° 0 mm 1 mps 682 mmHg 39%
    17:00 +6°C° 0 mm 1 mps 682 mmHg 40%
    18:00 +4°C° 0 mm 2 mps 683 mmHg 41%
    19:00 +3°C° 0 mm 2 mps 683 mmHg 42%
    20:00 +2°C° 0 mm 2 mps 683 mmHg 41%
    21:00 +1°C° 0 mm 3 mps 683 mmHg 40%
    22:00 +1°C° 0 mm 3 mps 683 mmHg 39%
    23:00 +1°C° 0 mm 3 mps 683 mmHg 38%

    Tomorrow, 30 January, Thursday

    Time Temperature Precipitation Wind Pressure Humidity
    00:00 +1°C° 0 mm 3 mps 683 mmHg 37%
    01:00 +1°C° 0 mm 3 mps 683 mmHg 36%
    02:00 +1°C° 0 mm 3 mps 682 mmHg 36%
    03:00 +1°C° 0 mm 3 mps 682 mmHg 35%
    04:00 +1°C° 0 mm 3 mps 681 mmHg 35%
    05:00 +1°C° 0 mm 3 mps 681 mmHg 34%
    06:00 0°C° 0 mm 3 mps 681 mmHg 34%
    07:00 0°C° 0 mm 3 mps 681 mmHg 33%
    08:00 +2°C° 0 mm 3 mps 681 mmHg 33%
    09:00 +4°C° 0 mm 3 mps 682 mmHg 32%
    10:00 +5°C° 0 mm 3 mps 682 mmHg 31%
    11:00 +7°C° 0 mm 2 mps 681 mmHg 33%
    12:00 +8°C° 0 mm 2 mps 680 mmHg 35%
    13:00 +9°C° 0 mm 2 mps 680 mmHg 37%
    14:00 +9°C° 0 mm 1 mps 680 mmHg 40%
    15:00 +9°C° 0 mm 1 mps 679 mmHg 42%
    16:00 +9°C° 0 mm 1 mps 679 mmHg 44%
    17:00 +8°C° 0 mm 1 mps 679 mmHg 46%
    18:00 +7°C° 0 mm 1 mps 680 mmHg 48%
    19:00 +6°C° 0 mm 1 mps 680 mmHg 50%
    20:00 +6°C° 0 mm 1 mps 680 mmHg 51%
    21:00 +5°C° 0 mm 1 mps 680 mmHg 51%
    22:00 +5°C° 0 mm 1 mps 680 mmHg 52%
    23:00 +5°C° 0 mm 1 mps 680 mmHg 52%

    Day after tomorrow, 31 January, Friday

    Time Temperature Precipitation Wind Pressure Humidity
    00:00 +5°C° 0 mm 1 mps 680 mmHg 51%
    01:00 +3°C° 0 mm 2 mps 680 mmHg 51%
    02:00 +3°C° 0 mm 2 mps 680 mmHg 51%
    03:00 +3°C° 0 mm 2 mps 680 mmHg 51%
    04:00 +3°C° 0 mm 2 mps 680 mmHg 51%
    05:00 +3°C° 0 mm 2 mps 680 mmHg 51%
    06:00 +3°C° 0 mm 2 mps 681 mmHg 52%
    07:00 +3°C° 0 mm 2 mps 681 mmHg 52%
    08:00 +4°C° 0 mm 2 mps 681 mmHg 50%
    09:00 +6°C° 0 mm 2 mps 682 mmHg 48%
    10:00 +7°C° 0 mm 2 mps 682 mmHg 46%
    11:00 +8°C° 0 mm 2 mps 682 mmHg 46%
    12:00 +9°C° 0 mm 2 mps 681 mmHg 46%
    13:00 +10°C° 0 mm 2 mps 681 mmHg 46%
    14:00 +9°C° 0 mm 2 mps 680 mmHg 46%
    15:00 +9°C° 0 mm 2 mps 680 mmHg 45%
    16:00 +9°C° 0 mm 2 mps 680 mmHg 45%
    17:00 +8°C° 0 mm 2 mps 680 mmHg 48%
    18:00 +7°C° 0 mm 3 mps 681 mmHg 52%
    19:00 +4°C° 0 mm 3 mps 681 mmHg 55%
    20:00 +4°C° 0 mm 3 mps 681 mmHg 55%
    21:00 +4°C° 0 mm 3 mps 681 mmHg 56%
    22:00 +3°C° 0 mm 3 mps 681 mmHg 56%
    23:00 +3°C° 0 mm 3 mps 681 mmHg 55%

    1 February, Saturday

    Time Temperature Precipitation Wind Pressure Humidity
    00:00 +3°C° 0 mm 4 mps 681 mmHg 54%
    01:00 +3°C° 0 mm 4 mps 681 mmHg 54%
    02:00 +1°C° 0 mm 4 mps 680 mmHg 52%
    03:00 +1°C° 0 mm 4 mps 680 mmHg 51%
    04:00 +1°C° 0 mm 4 mps 680 mmHg 50%
    05:00 +1°C° 0 mm 4 mps 680 mmHg 48%
    06:00 +1°C° 0 mm 4 mps 680 mmHg 47%
    07:00 +1°C° 0 mm 4 mps 680 mmHg 46%
    08:00 +4°C° 0 mm 4 mps 680 mmHg 43%
    09:00 +5°C° 0 mm 4 mps 681 mmHg 40%
    10:00 +7°C° 0 mm 4 mps 681 mmHg 38%
    11:00 +8°C° 0 mm 4 mps 680 mmHg 38%
    12:00 +10°C° 0 mm 4 mps 680 mmHg 38%
    13:00 +11°C° 0 mm 3 mps 679 mmHg 38%
    14:00 +11°C° 0 mm 3 mps 679 mmHg 39%
    15:00 +11°C° 0 mm 3 mps 679 mmHg 40%
    16:00 +11°C° 0 mm 3 mps 679 mmHg 41%
    17:00 +9°C° 0 mm 3 mps 679 mmHg 42%
    18:00 +8°C° 0 mm 3 mps 679 mmHg 43%
    19:00 +7°C° 0 mm 3 mps 680 mmHg 43%
    20:00 +5°C° 0 mm 3 mps 680 mmHg 43%
    21:00 +5°C° 0 mm 3 mps 680 mmHg 43%
    22:00 +4°C° 0 mm 3 mps 680 mmHg 43%
    23:00 +4°C° 0 mm 3 mps 680 mmHg 43%

    2 February, Sunday

    Time Temperature Precipitation Wind Pressure Humidity
    00:00 +4°C° 0 mm 4 mps 680 mmHg 42%
    01:00 +4°C° 0 mm 4 mps 680 mmHg 41%
    02:00 +4°C° 0 mm 4 mps 680 mmHg 40%
    03:00 +4°C° 0 mm 4 mps 679 mmHg 40%
    04:00 +2°C° 0 mm 5 mps 679 mmHg 39%
    05:00 +2°C° 0 mm 5 mps 679 mmHg 39%
    06:00 +2°C° 0 mm 5 mps 679 mmHg 40%
    07:00 +2°C° 0 mm 5 mps 679 mmHg 41%
    08:00 +5°C° 0 mm 5 mps 679 mmHg 39%
    09:00 +7°C° 0 mm 5 mps 680 mmHg 38%
    10:00 +8°C° 0 mm 5 mps 680 mmHg 36%
    11:00 +9°C° 0 mm 5 mps 679 mmHg 36%
    12:00 +11°C° 0 mm 4 mps 679 mmHg 37%
    13:00 +12°C° 0 mm 4 mps 679 mmHg 37%
    14:00 +12°C° 0 mm 3 mps 679 mmHg 39%
    15:00 +11°C° 0 mm 3 mps 679 mmHg 41%
    16:00 +12°C° 0 mm 2 mps 679 mmHg 44%
    17:00 +10°C° 0 mm 2 mps 679 mmHg 47%
    18:00 +8°C° 0 mm 2 mps 679 mmHg 50%
    19:00 +7°C° 0 mm 2 mps 680 mmHg 54%
    20:00 +7°C° 0.4 mm 2 mps 680 mmHg 64%
    21:00 +7°C° 0.4 mm 1 mps 680 mmHg 74%
    22:00 +6°C° 0.4 mm 1 mps 681 mmHg 84%
    23:00 +5°C° 1 mm 2 mps 681 mmHg 86%

    3 February, Monday

    Time Temperature Precipitation Wind Pressure Humidity
    00:00 +5°C° 1 mm 2 mps 681 mmHg 88%
    01:00 +4°C° 1 mm 3 mps 681 mmHg 90%
    02:00 +4°C° 0.6 mm 2 mps 681 mmHg 92%
    03:00 +4°C° 0.6 mm 2 mps 682 mmHg 94%
    04:00 +4°C° 0.6 mm 2 mps 682 mmHg 95%
    05:00 +3°C° 0.3 mm 2 mps 682 mmHg 95%
    06:00 +4°C° 0.3 mm 1 mps 682 mmHg 95%
    07:00 +4°C° 0.3 mm 1 mps 682 mmHg 95%
    08:00 +4°C° 0 mm 1 mps 682 mmHg 93%
    09:00 +4°C° 0 mm 1 mps 682 mmHg 91%
    10:00 +5°C° 0 mm 1 mps 682 mmHg 88%
    11:00 +5°C° 0 mm 1 mps 682 mmHg 84%
    12:00 +6°C° 0 mm 1 mps 682 mmHg 80%
    13:00 +6°C° 0 mm 0 mps 681 mmHg 76%
    14:00 +7°C° 0 mm 1 mps 682 mmHg 74%
    15:00 +7°C° 0 mm 1 mps 682 mmHg 71%
    16:00 +7°C° 0 mm 1 mps 682 mmHg 68%
    17:00 +7°C° 0 mm 1 mps 682 mmHg 70%
    18:00 +6°C° 0 mm 1 mps 683 mmHg 73%
    19:00 +4°C° 0 mm 2 mps 683 mmHg 75%
    20:00 +4°C° 0 mm 2 mps 683 mmHg 73%
    21:00 +4°C° 0 mm 2 mps 683 mmHg 72%
    22:00 +3°C° 0 mm 2 mps 683 mmHg 70%
    23:00 +3°C° 0 mm 2 mps 683 mmHg 68%
    Show more